sat.trackr.live / text

‹ back to catalog

STARLINK-1578

NORAD 46082 · 2020-055BH

PAYLOAD ACTIVE UNKNOWN

§ Identity

Operator
Country
US
Launch date
2020-08-07
Launch site
AFETR
Launch vehicle
Mass (kg)
RCS (m²)

Purposes: comms

External: N2YO · Heavens-Above · Gunter

§ Orbital elements

Epoch: 2026-09-14T12:42:49.950720Z

Period
94.01 min
Inclination
53.1599°
Eccentricity
0.0001467
Mean motion
15.31702565 rev/d
Perigee alt
469.7 km
Apogee alt
471.7 km
Semi-major
6,848.9 km
B*
-3.4909e-5
RAAN
302.8364°
Arg perigee
130.2548°
Mean anomaly
229.8582°
Rev number
33,816

§ Raw data

STARLINK-15781 46082U 20055BH  26257.52974480 -.00001448  00000+0 -34909-4 0  99902 46082  53.1599 302.8364 0001467 130.2548 229.8582 15.31702565338163

JSON: /api/v1/satellites/46082 · /tle

For live sub-satellite position, see the globe view (requires WebGL).

§ Visibility from observer

Set your observer location to see the next 7 days of passes ≥ 10°. The values pass through the URL so the page stays shareable.

No JS? Fill the form by hand. The geolocation button needs JavaScript.